BAW89 EGLL-KJFK

Flight info

Callsign BAW89
Flight time N/A
Altitude 36000
Route CPT L9 DIDZA N14 OKTAD DCT MEDOG DCT VATRY DCT VENER/M083F360 DCT 5430N02000W 5430N03000W 54N040W 53N050W DCT RIKAL/N0482F360 N572A TOPPS DCT ENE PARCH3
Aircraft B77W/H-SDE1E2E3FGHIJ2J3J4J5M1RWXY/LB1D1

Departure

Time 2026-05-03 20:16
Airport London Heathrow Airport (EGLL)

Arrival

Time N/A
Airport John F. Kennedy International Airport (KJFK)
Time Latitude Longitude Altitude Speed Heading
2026-05-03 20:15 51.46491 -0.44069 87 ft 40 kts 272°
2026-05-03 20:15 51.46490 -0.44690 93 ft 85 kts 270°
2026-05-03 20:15 51.46484 -0.46070 91 ft 163 kts 269°
2026-05-03 20:15 51.46477 -0.48270 221 ft 220 kts 270°
2026-05-03 20:16 51.46484 -0.50783 1097 ft 232 kts 270°
2026-05-03 20:16 51.46494 -0.53438 2173 ft 243 kts 270°
2026-05-03 20:16 51.46485 -0.56166 3311 ft 251 kts 269°
2026-05-03 20:16 51.46457 -0.58920 4317 ft 243 kts 269°
2026-05-03 20:17 51.46410 -0.61611 4666 ft 241 kts 268°
2026-05-03 20:17 51.46345 -0.64373 4452 ft 258 kts 267°
2026-05-03 20:17 51.46257 -0.67277 4601 ft 262 kts 268°
2026-05-03 20:17 51.46182 -0.70196 5263 ft 262 kts 268°
2026-05-03 20:18 51.46132 -0.73145 6213 ft 268 kts 269°
2026-05-03 20:18 51.46114 -0.76165 7109 ft 276 kts 270°
2026-05-03 20:18 51.46128 -0.79262 7683 ft 279 kts 270°
2026-05-03 20:18 51.46133 -0.82400 8110 ft 283 kts 270°
2026-05-03 20:19 51.46225 -0.85551 8551 ft 283 kts 278°
2026-05-03 20:19 51.46511 -0.88646 9063 ft 276 kts 270°
2026-05-03 20:19 51.46278 -0.91676 9761 ft 276 kts 262°
2026-05-03 20:19 51.46211 -0.94816 10011 ft 286 kts 274°
2026-05-03 20:20 51.46449 -0.97976 10000 ft 285 kts 279°
2026-05-03 20:20 51.46785 -1.01130 10000 ft 288 kts 280°
2026-05-03 20:20 51.47150 -1.04280 10015 ft 288 kts 281°
2026-05-03 20:20 51.47522 -1.07445 10335 ft 289 kts 281°
2026-05-03 20:21 51.47893 -1.10620 10838 ft 290 kts 280°
2026-05-03 20:21 51.48263 -1.13817 11324 ft 292 kts 280°
2026-05-03 20:21 51.48632 -1.17026 11798 ft 294 kts 280°
2026-05-03 20:21 51.49016 -1.20250 12241 ft 295 kts 285°
2026-05-03 20:22 51.49941 -1.23177 12533 ft 299 kts 314°
2026-05-03 20:22 51.51447 -1.25477 12874 ft 301 kts 317°
2026-05-03 20:22 51.52996 -1.27762 13322 ft 303 kts 317°
2026-05-03 20:22 51.54551 -1.30076 13792 ft 304 kts 317°
2026-05-03 20:23 51.56101 -1.32400 14272 ft 306 kts 316°
2026-05-03 20:23 51.57658 -1.34747 14703 ft 308 kts 316°
2026-05-03 20:23 51.59229 -1.37122 15129 ft 310 kts 315°
2026-05-03 20:23 51.60673 -1.39710 15569 ft 312 kts 307°
2026-05-03 20:24 51.61932 -1.42573 15991 ft 314 kts 300°
2026-05-03 20:24 51.62989 -1.45667 16314 ft 321 kts 297°
2026-05-03 20:24 51.64023 -1.48952 16429 ft 334 kts 296°
2026-05-03 20:24 51.65070 -1.52284 16733 ft 342 kts 297°
2026-05-03 20:25 51.66166 -1.55695 17135 ft 346 kts 297°
2026-05-03 20:25 51.67309 -1.59191 17632 ft 348 kts 297°
2026-05-03 20:25 51.68444 -1.62642 18135 ft 349 kts 297°
2026-05-03 20:25 51.69190 -1.64936 18441 ft 351 kts 295°
2026-05-03 20:26 51.70106 -1.68608 18873 ft 353 kts 287°
2026-05-03 20:26 51.70701 -1.72433 19296 ft 356 kts 279°
2026-05-03 20:26 51.71017 -1.76422 19726 ft 358 kts 276°
2026-05-03 20:26 51.71371 -1.81736 20300 ft 362 kts 276°
2026-05-03 20:27 51.71566 -1.84504 20499 ft 366 kts 278°
2026-05-03 20:27 51.72042 -1.88533 20726 ft 375 kts 283°
2026-05-03 20:27 51.72661 -1.92676 20874 ft 386 kts 284°
2026-05-03 20:27 51.73324 -1.96994 21129 ft 394 kts 284°
2026-05-03 20:28 51.73983 -2.01302 21537 ft 397 kts 284°
2026-05-03 20:28 51.74637 -2.05619 22009 ft 398 kts 283°
2026-05-03 20:28 51.75281 -2.09920 22447 ft 400 kts 283°
2026-05-03 20:28 51.75940 -2.14354 22863 ft 403 kts 283°
2026-05-03 20:29 51.76584 -2.18721 23243 ft 406 kts 283°
2026-05-03 20:29 51.77241 -2.23194 23652 ft 408 kts 283°
2026-05-03 20:29 51.77893 -2.27650 24046 ft 411 kts 283°
2026-05-03 20:29 51.78549 -2.32143 24441 ft 413 kts 283°
2026-05-03 20:30 51.79217 -2.36733 24508 ft 424 kts 283°
2026-05-03 20:30 51.79899 -2.41427 24598 ft 434 kts 283°
2026-05-03 20:30 51.80595 -2.46229 24770 ft 442 kts 283°
2026-05-03 20:30 51.81295 -2.51077 25028 ft 446 kts 283°
2026-05-03 20:31 51.81996 -2.55967 25396 ft 448 kts 283°
2026-05-03 20:31 51.82679 -2.60902 25800 ft 449 kts 282°
2026-05-03 20:31 51.83347 -2.65852 26155 ft 451 kts 282°
2026-05-03 20:31 51.84012 -2.70830 26492 ft 453 kts 282°
2026-05-03 20:32 51.84667 -2.75749 26793 ft 456 kts 282°
2026-05-03 20:32 51.85337 -2.80778 27094 ft 458 kts 282°
2026-05-03 20:32 51.86008 -2.85815 27399 ft 460 kts 282°
2026-05-03 20:32 51.86683 -2.90890 27691 ft 462 kts 282°
2026-05-03 20:33 51.87360 -2.95994 27985 ft 464 kts 282°
2026-05-03 20:33 51.88036 -3.01111 28260 ft 467 kts 282°
2026-05-03 20:33 51.88711 -3.06233 28512 ft 469 kts 282°
2026-05-03 20:33 51.89396 -3.11451 28762 ft 472 kts 282°
2026-05-03 20:34 51.90065 -3.16565 28993 ft 474 kts 282°
2026-05-03 20:34 51.90759 -3.21892 29268 ft 475 kts 282°
2026-05-03 20:34 51.91429 -3.27058 29548 ft 476 kts 282°
2026-05-03 20:34 51.92120 -3.32404 29815 ft 477 kts 282°
2026-05-03 20:35 51.92801 -3.37683 30044 ft 479 kts 282°
2026-05-03 20:35 51.93480 -3.42971 30212 ft 481 kts 282°
2026-05-03 20:35 51.94163 -3.48294 30404 ft 483 kts 282°
2026-05-03 20:35 51.95035 -3.53570 30571 ft 485 kts 288°
2026-05-03 20:36 51.96170 -3.58573 30762 ft 486 kts 293°
2026-05-03 20:36 51.97679 -3.63635 30927 ft 487 kts 297°
2026-05-03 20:36 51.99257 -3.68503 31086 ft 489 kts 298°
2026-05-03 20:36 52.00850 -3.73369 31255 ft 489 kts 298°
2026-05-03 20:37 52.02450 -3.78274 31442 ft 490 kts 297°
2026-05-03 20:37 52.04035 -3.83169 31590 ft 491 kts 297°
2026-05-03 20:37 52.05610 -3.88078 31811 ft 490 kts 297°
2026-05-03 20:37 52.07152 -3.92917 32101 ft 487 kts 297°
2026-05-03 20:38 52.08714 -3.97843 32409 ft 484 kts 297°
2026-05-03 20:38 52.10230 -4.02640 32606 ft 484 kts 297°
2026-05-03 20:38 52.11770 -4.07524 32742 ft 484 kts 297°
2026-05-03 20:38 52.13297 -4.12375 32937 ft 483 kts 297°
2026-05-03 20:39 52.14839 -4.17283 33096 ft 483 kts 297°
2026-05-03 20:39 52.16366 -4.22151 33215 ft 484 kts 297°
2026-05-03 20:39 52.17900 -4.27048 33302 ft 485 kts 297°
2026-05-03 20:40 52.20969 -4.36880 33504 ft 487 kts 297°
2026-05-03 20:40 52.24035 -4.46738 33696 ft 488 kts 297°
2026-05-03 20:41 52.27097 -4.56626 33834 ft 489 kts 296°
2026-05-03 20:41 52.30152 -4.66533 33968 ft 491 kts 296°
2026-05-03 20:42 52.33222 -4.76527 33996 ft 493 kts 296°
2026-05-03 20:42 52.36293 -4.86567 34005 ft 494 kts 296°
2026-05-03 20:43 52.39364 -4.96651 34003 ft 495 kts 296°
2026-05-03 20:43 52.42430 -5.06759 34002 ft 495 kts 296°
2026-05-03 20:44 52.45482 -5.16863 34000 ft 494 kts 296°
2026-05-03 20:44 52.48527 -5.26987 33999 ft 493 kts 296°
2026-05-03 20:45 52.51548 -5.37072 34000 ft 491 kts 296°
2026-05-03 20:45 52.54552 -5.47139 34000 ft 490 kts 296°
2026-05-03 20:46 52.57352 -5.57328 34001 ft 489 kts 292°
2026-05-03 20:46 52.59941 -5.67619 34004 ft 490 kts 292°
2026-05-03 20:47 52.62520 -5.77977 34003 ft 491 kts 292°
2026-05-03 20:47 52.65123 -5.88381 34002 ft 491 kts 292°
2026-05-03 20:48 52.67731 -5.98794 34002 ft 492 kts 292°
2026-05-03 20:48 52.70338 -6.09236 34002 ft 492 kts 292°
2026-05-03 20:49 52.72934 -6.19690 34001 ft 492 kts 292°
2026-05-03 20:49 52.75503 -6.30088 34000 ft 492 kts 292°
2026-05-03 20:50 52.78060 -6.40486 34001 ft 491 kts 292°
2026-05-03 20:50 52.80642 -6.51035 34003 ft 491 kts 292°
2026-05-03 20:51 52.83191 -6.61503 34002 ft 491 kts 291°
2026-05-03 20:51 52.85743 -6.72029 34000 ft 491 kts 291°
2026-05-03 20:52 52.88264 -6.82482 34001 ft 491 kts 291°
2026-05-03 20:52 52.90792 -6.93011 34002 ft 491 kts 291°
2026-05-03 20:53 52.93292 -7.03475 34001 ft 491 kts 291°
2026-05-03 20:53 52.95801 -7.14031 34000 ft 490 kts 291°
2026-05-03 20:54 52.98297 -7.24578 34001 ft 490 kts 291°
2026-05-03 20:54 53.02003 -7.40341 34002 ft 490 kts 291°
2026-05-03 20:55 53.04485 -7.50961 34000 ft 490 kts 291°
2026-05-03 20:55 53.06932 -7.61483 34001 ft 491 kts 291°
2026-05-03 20:56 53.09388 -7.72097 34007 ft 492 kts 291°
2026-05-03 20:56 53.11836 -7.82731 34003 ft 491 kts 291°
2026-05-03 20:57 53.14270 -7.93352 33998 ft 490 kts 290°
2026-05-03 20:57 53.16688 -8.03962 34000 ft 489 kts 290°
2026-05-03 20:58 53.19089 -8.14545 34000 ft 489 kts 290°
2026-05-03 20:58 53.21490 -8.25187 34003 ft 489 kts 290°
2026-05-03 20:59 53.23877 -8.35817 34004 ft 490 kts 290°
2026-05-03 20:59 53.26249 -8.46439 34003 ft 491 kts 290°
2026-05-03 21:00 53.27856 -8.53661 34002 ft 491 kts 290°
2026-05-03 21:00 53.31004 -8.67887 34001 ft 491 kts 290°
2026-05-03 21:01 53.33374 -8.78664 34001 ft 491 kts 290°
2026-05-03 21:01 53.35718 -8.89376 34000 ft 491 kts 290°
2026-05-03 21:02 53.38059 -9.00130 34001 ft 491 kts 290°
2026-05-03 21:02 53.40382 -9.10855 34000 ft 490 kts 290°
2026-05-03 21:03 53.42692 -9.21581 34001 ft 489 kts 290°
2026-05-03 21:03 53.44998 -9.32344 34001 ft 489 kts 289°
2026-05-03 21:04 53.47275 -9.43027 33999 ft 488 kts 289°
2026-05-03 21:04 53.49555 -9.53777 34003 ft 489 kts 289°
2026-05-03 21:05 53.51829 -9.64558 34001 ft 489 kts 289°
2026-05-03 21:05 53.54093 -9.75354 34005 ft 490 kts 289°
2026-05-03 21:06 53.56351 -9.86174 34001 ft 489 kts 289°
2026-05-03 21:06 53.58594 -9.96980 34001 ft 489 kts 289°
2026-05-03 21:07 53.60825 -10.07788 33999 ft 488 kts 289°
2026-05-03 21:07 53.63023 -10.18498 34001 ft 488 kts 289°
2026-05-03 21:08 53.65241 -10.29359 34001 ft 487 kts 289°
2026-05-03 21:08 53.67442 -10.40197 34002 ft 488 kts 289°
2026-05-03 21:09 53.69632 -10.51041 34003 ft 488 kts 289°
2026-05-03 21:09 53.71795 -10.61813 34001 ft 489 kts 288°
2026-05-03 21:10 53.73624 -10.70963 34002 ft 489 kts 288°
2026-05-03 21:10 53.75792 -10.81868 34002 ft 489 kts 288°
2026-05-03 21:11 53.77953 -10.92803 34002 ft 490 kts 288°
2026-05-03 21:11 53.80100 -11.03725 34001 ft 489 kts 288°
2026-05-03 21:12 53.82238 -11.14660 34001 ft 489 kts 288°
2026-05-03 21:12 53.84348 -11.25515 34001 ft 488 kts 288°
2026-05-03 21:13 53.86460 -11.36443 34001 ft 488 kts 288°
2026-05-03 21:13 53.88562 -11.47384 34000 ft 488 kts 288°
2026-05-03 21:14 53.90651 -11.58317 34001 ft 487 kts 288°
2026-05-03 21:14 53.92728 -11.69250 34001 ft 487 kts 288°
2026-05-03 21:15 53.94800 -11.80220 34002 ft 487 kts 288°
2026-05-03 21:15 53.96841 -11.91094 34002 ft 487 kts 287°
2026-05-03 21:16 53.98888 -12.02055 34002 ft 487 kts 287°
2026-05-03 21:16 54.00919 -12.13001 34002 ft 487 kts 287°
2026-05-03 21:17 54.02951 -12.24016 34001 ft 487 kts 287°
2026-05-03 21:17 54.04971 -12.35026 34001 ft 487 kts 287°
2026-05-03 21:18 54.06975 -12.46018 34002 ft 487 kts 287°
2026-05-03 21:18 54.08962 -12.56984 34002 ft 487 kts 287°
2026-05-03 21:19 54.10951 -12.68026 34002 ft 487 kts 287°
2026-05-03 21:19 54.12927 -12.79063 34001 ft 487 kts 287°
2026-05-03 21:20 54.14899 -12.90141 34002 ft 487 kts 287°
2026-05-03 21:20 54.16858 -13.01214 34002 ft 487 kts 287°
2026-05-03 21:21 54.18804 -13.12285 34001 ft 487 kts 287°
2026-05-03 21:21 54.20739 -13.23361 34002 ft 487 kts 286°
2026-05-03 21:22 54.22668 -13.34468 34001 ft 487 kts 286°
2026-05-03 21:22 54.24582 -13.45561 34001 ft 487 kts 286°
2026-05-03 21:23 54.26488 -13.56680 34002 ft 487 kts 286°
2026-05-03 21:23 54.28386 -13.67818 34002 ft 487 kts 286°
2026-05-03 21:24 54.30257 -13.78864 34002 ft 487 kts 286°
2026-05-03 21:24 54.32130 -13.89998 34002 ft 486 kts 286°
2026-05-03 21:25 54.33989 -14.01119 34001 ft 486 kts 286°
2026-05-03 21:25 54.35858 -14.12369 34001 ft 486 kts 285°
2026-05-03 21:26 54.37687 -14.23454 34002 ft 486 kts 285°
2026-05-03 21:26 54.39519 -14.34625 34002 ft 486 kts 285°
2026-05-03 21:27 54.41342 -14.45816 34001 ft 486 kts 285°
2026-05-03 21:27 54.43151 -14.56991 34001 ft 486 kts 285°
2026-05-03 21:28 54.44950 -14.68182 34001 ft 486 kts 285°
2026-05-03 21:28 54.46739 -14.79383 34001 ft 486 kts 285°
2026-05-03 21:29 54.48520 -14.90601 34000 ft 486 kts 285°
2026-05-03 21:29 54.49996 -15.01950 34003 ft 486 kts 277°
2026-05-03 21:30 54.50361 -15.13512 34007 ft 485 kts 271°
2026-05-03 21:30 54.50522 -15.25135 34004 ft 485 kts 271°
2026-05-03 21:31 54.50697 -15.36764 34001 ft 486 kts 271°
2026-05-03 21:31 54.50889 -15.48384 34002 ft 486 kts 271°
2026-05-03 21:32 54.51078 -15.59949 34001 ft 486 kts 271°
2026-05-03 21:32 54.51257 -15.71575 34001 ft 486 kts 271°
2026-05-03 21:33 54.51423 -15.83204 34001 ft 486 kts 271°
2026-05-03 21:33 54.51578 -15.94854 34001 ft 486 kts 271°
2026-05-03 21:34 54.51722 -16.06488 34001 ft 486 kts 271°
2026-05-03 21:34 54.51853 -16.18046 34001 ft 486 kts 271°
2026-05-03 21:35 54.51975 -16.29748 34001 ft 486 kts 271°
2026-05-03 21:35 54.52084 -16.41291 34001 ft 485 kts 271°
2026-05-03 21:36 54.52183 -16.52917 34001 ft 485 kts 271°
2026-05-03 21:36 54.52271 -16.64550 34001 ft 485 kts 270°
2026-05-03 21:37 54.52347 -16.76168 34001 ft 485 kts 270°
2026-05-03 21:37 54.52413 -16.87773 34001 ft 485 kts 270°
2026-05-03 21:38 54.52467 -16.99390 34001 ft 485 kts 270°
2026-05-03 21:38 54.52510 -17.10982 34001 ft 485 kts 270°
2026-05-03 21:39 54.52542 -17.22610 34001 ft 485 kts 270°
2026-05-03 21:39 54.52562 -17.34153 34001 ft 485 kts 270°
2026-05-03 21:40 54.52572 -17.45748 34001 ft 485 kts 270°
2026-05-03 21:40 54.52571 -17.57362 34001 ft 485 kts 270°
2026-05-03 21:41 54.52558 -17.68976 34001 ft 485 kts 270°
2026-05-03 21:41 54.52535 -17.80590 34001 ft 485 kts 270°
2026-05-03 21:42 54.52500 -17.92205 34001 ft 485 kts 270°
2026-05-03 21:42 54.52454 -18.03813 34001 ft 485 kts 269°
2026-05-03 21:43 54.52397 -18.15418 34001 ft 485 kts 269°
2026-05-03 21:43 54.52330 -18.26945 34001 ft 485 kts 269°
2026-05-03 21:44 54.52251 -18.38552 34001 ft 485 kts 269°
2026-05-03 21:44 54.52161 -18.50156 34001 ft 484 kts 269°
2026-05-03 21:45 54.52059 -18.61749 34000 ft 484 kts 269°
2026-05-03 21:45 54.51947 -18.73342 34001 ft 484 kts 269°
2026-05-03 21:46 54.51824 -18.84933 34001 ft 484 kts 269°
2026-05-03 21:46 54.51689 -18.96541 34001 ft 484 kts 269°
2026-05-03 21:47 54.51544 -19.08123 34001 ft 484 kts 269°
2026-05-03 21:47 54.51387 -19.19708 34001 ft 484 kts 269°
2026-05-03 21:48 54.51220 -19.31290 34001 ft 484 kts 268°
2026-05-03 21:48 54.51041 -19.42902 34001 ft 484 kts 268°
2026-05-03 21:49 54.50852 -19.54414 34001 ft 484 kts 268°
2026-05-03 21:49 54.50652 -19.65992 34001 ft 484 kts 268°
2026-05-03 21:50 54.50440 -19.77585 34001 ft 484 kts 268°
2026-05-03 21:50 54.50219 -19.89188 34001 ft 484 kts 268°
2026-05-03 21:51 54.50021 -20.00778 34001 ft 484 kts 271°
2026-05-03 21:51 54.50425 -20.12355 34006 ft 484 kts 274°
2026-05-03 21:52 54.50927 -20.23837 34002 ft 484 kts 274°
2026-05-03 21:52 54.51405 -20.35391 34002 ft 484 kts 274°
2026-05-03 21:53 54.51851 -20.46969 34002 ft 484 kts 274°
2026-05-03 21:53 54.52278 -20.58557 34002 ft 485 kts 274°
2026-05-03 21:54 54.52693 -20.70134 34001 ft 485 kts 273°
2026-05-03 21:54 54.53098 -20.81694 34001 ft 485 kts 273°
2026-05-03 21:55 54.53494 -20.93312 34002 ft 485 kts 273°
2026-05-03 21:55 54.53877 -21.04884 34002 ft 485 kts 273°
2026-05-03 21:56 54.54188 -21.14533 34002 ft 485 kts 273°
2026-05-03 21:56 54.54552 -21.26133 34002 ft 485 kts 273°
2026-05-03 21:57 54.54904 -21.37709 34002 ft 484 kts 273°
2026-05-03 21:57 54.55245 -21.49293 34002 ft 484 kts 273°
2026-05-03 21:58 54.55574 -21.60861 34001 ft 484 kts 272°
2026-05-03 21:58 54.55894 -21.72500 34002 ft 484 kts 272°
2026-05-03 21:59 54.56202 -21.84079 34002 ft 484 kts 272°
2026-05-03 21:59 54.56499 -21.95689 34002 ft 484 kts 272°
2026-05-03 22:00 54.56785 -22.07297 34002 ft 484 kts 272°
2026-05-03 22:00 54.57058 -22.18831 34002 ft 484 kts 272°
2026-05-03 22:01 54.57322 -22.30436 34002 ft 484 kts 272°
2026-05-03 22:01 54.57574 -22.42038 34001 ft 484 kts 272°
2026-05-03 22:02 54.57679 -22.47008 34002 ft 484 kts 272°